Find OneWeb SL0230

NORAD ID: 48769 Int'l Des: 2021-045 Owner: ONEWEBN Country: UK Constellation: oneweb operational
LEOCIRCULARPOLARONEWEB_TYPE

当前视图

正在加载3D地球...

About OneWeb SL0230

OneWeb SL0230 (NORAD 48769) is a oneweb constellation satellite launched May 28, 2021 by ONEWEBN of UK. It operates in LEO, CIRCULAR, POLAR, ONEWEB_TYPE orbit with a mass of 148.00 kg.

关于 OneWeb SL0230

正在加载描述...

即将过境

Passes for default location (London). Set your location on the main map for personalized predictions.

高度历史

Loading altitude history...

两行轨道根数

1 48769U 21045C 26171.28309796 -.00000011 00000-0 -63698-4 0 9997
2 48769 87.9000 258.5869 0001997 95.4119 264.7239 13.15548500245071
Epoch: Jun 20, 2026 • Age: 38 hours

当前状态

高度 1225.2 km
速度 7.24 km/s
星下点 -57.04°S, 136.08°W
发射日期 May 28, 2021
运行时间 5 years
类型 internet

技术详情

分类 Payload
质量 148.00 kg
干质量 140.00 kg
总质量 148.00 kg
长度 1.30 m
直径 1.00 m
跨度 5.00 m
形状 Trapezoid+2 pan
制造商 ONEWUS
平台类型 ARROW
阶段状态 In Orbit
所有者/国家 ONEWEBN/UK

Most Searched